| time (UTC) | temp F | wind direction | speed knots | gust knots | rain 1hr in | rain 24hr in | rain mn in | humidity % | barometer mb |
| 20260901203634 | 71 | 354 | 0.0 | 0.0 | 0.00 | 0.00 | 0.00 | 66 | 1017.8 |
| 20260901203133 | 72 | 354 | 0.0 | 0.9 | 0.00 | 0.00 | 0.00 | 66 | 1017.9 |
| 20260901202643 | 72 | 353 | 0.0 | 0.9 | 0.00 | 0.00 | 0.00 | 65 | 1017.5 |
| 20260901201633 | 73 | 336 | 0.0 | 1.7 | 0.00 | 0.00 | 0.00 | 63 | 1017.8 |
| 20260901200134 | 73 | 314 | 0.0 | 0.9 | 0.00 | 0.00 | 0.00 | 65 | 1017.7 |
| 20260901195638 | 73 | 318 | 0.0 | 0.9 | 0.00 | 0.00 | 0.00 | 65 | 1017.5 |
| 20260901195133 | 73 | 319 | 0.0 | 0.9 | 0.00 | 0.00 | 0.00 | 65 | 1017.5 |
| 20260901194634 | 74 | 317 | 0.0 | 0.9 | 0.00 | 0.00 | 0.00 | 64 | 1017.4 |
| 20260901194139 | 74 | 317 | 0.0 | 3.5 | 0.00 | 0.00 | 0.00 | 63 | 1017.2 |
| 20260901193630 | 74 | 316 | 0.0 | 3.5 | 0.00 | 0.00 | 0.00 | 64 | 1017.5 |
| 20260901192633 | 75 | 308 | 0.9 | 2.6 | 0.00 | 0.00 | 0.00 | 64 | 1016.8 |
| 20260901192137 | 75 | 302 | 0.0 | 2.6 | 0.00 | 0.00 | 0.00 | 64 | 1017.1 |
| 20260901191634 | 76 | 318 | 0.9 | 2.6 | 0.00 | 0.00 | 0.00 | 63 | 1017.0 |
| 20260901191136 | 76 | 311 | 0.0 | 1.7 | 0.00 | 0.00 | 0.00 | 63 | 1016.9 |
| 20260901190634 | 77 | 311 | 0.0 | 1.7 | 0.00 | 0.00 | 0.00 | 61 | 1016.8 |
| 20260901190137 | 78 | 314 | 0.0 | 2.6 | 0.00 | 0.00 | 0.00 | 60 | 1016.5 |
| 20260901185635 | 78 | 309 | 0.0 | 3.5 | 0.00 | 0.00 | 0.00 | 59 | 1016.4 |
| 20260901185133 | 79 | 308 | 2.6 | 3.5 | 0.00 | 0.00 | 0.00 | 55 | 1016.7 |
| 20260901184634 | 80 | 314 | 0.9 | 3.5 | 0.00 | 0.00 | 0.00 | 55 | 1016.6 |
| 20260901184141 | 80 | 317 | 1.7 | 3.5 | 0.00 | 0.00 | 0.00 | 51 | 1016.4 |
| 20260901183634 | 80 | 317 | 0.9 | 2.6 | 0.00 | 0.00 | 0.00 | 51 | 1016.4 |
| 20260901183130 | 80 | 320 | 0.9 | 3.5 | 0.00 | 0.00 | 0.00 | 51 | 1016.4 |
| 20260901182140 | 81 | 307 | 2.6 | 5.2 | 0.00 | 0.00 | 0.00 | 53 | 1016.3 |
| 20260901181646 | 81 | 316 | 0.0 | 5.2 | 0.00 | 0.00 | 0.00 | 58 | 1016.1 |
| 20260901181135 | 81 | 314 | 0.9 | 2.6 | 0.00 | 0.00 | 0.00 | 59 | 1016.2 |
| 20260901180633 | 81 | 309 | 0.0 | 2.6 | 0.00 | 0.00 | 0.00 | 59 | 1016.4 |
| 20260901180131 | 82 | 310 | 0.0 | 2.6 | 0.00 | 0.00 | 0.00 | 58 | 1016.3 |
| 20260901175633 | 82 | 312 | 0.9 | 1.7 | 0.00 | 0.00 | 0.00 | 58 | 1016.3 |
| 20260901175131 | 82 | 312 | 0.0 | 1.7 | 0.00 | 0.00 | 0.00 | 57 | 1016.1 |
| 20260901174631 | 83 | 308 | 0.0 | 1.7 | 0.00 | 0.00 | 0.00 | 56 | 1016.1 |
| 20260901174119 | 83 | 309 | 0.9 | 1.7 | 0.00 | 0.00 | 0.00 | 55 | 1016.0 |
| 20260901173620 | 83 | 304 | 0.0 | 5.2 | 0.00 | 0.00 | 0.00 | 54 | 1015.6 |
| 20260901172622 | 84 | 320 | 0.0 | 3.5 | 0.00 | 0.00 | 0.00 | 53 | 1015.8 |
| 20260901172119 | 85 | 311 | 1.7 | 2.6 | 0.00 | 0.00 | 0.00 | 53 | 1015.8 |
| 20260901171621 | 85 | 345 | 0.0 | 1.7 | 0.00 | 0.00 | 0.00 | 52 | 1015.6 |
| 20260901171119 | 85 | 3 | 0.9 | 3.5 | 0.00 | 0.00 | 0.00 | 52 | 1015.4 |
| 20260901170609 | 85 | 310 | 0.0 | 3.5 | 0.00 | 0.00 | 0.00 | 51 | 1015.6 |
| 20260901170106 | 86 | 313 | 0.9 | 2.6 | 0.00 | 0.00 | 0.00 | 50 | 1015.5 |
| 20260901165607 | 86 | 311 | 0.0 | 1.7 | 0.00 | 0.00 | 0.00 | 50 | 1015.6 |
| 20260901165044 | 86 | 71 | 0.9 | 3.5 | 0.00 | 0.00 | 0.00 | 48 | 1015.6 |
| 20260901164545 | 86 | 320 | 0.0 | 3.5 | 0.00 | 0.00 | 0.00 | 48 | 1015.4 |
| 20260901164031 | 87 | 317 | 0.9 | 5.2 | 0.00 | 0.00 | 0.00 | 47 | 1015.6 |
| 20260901163030 | 87 | 315 | 0.0 | 3.5 | 0.00 | 0.00 | 0.00 | 47 | 1015.7 |
| 20260901162534 | 87 | 44 | 0.0 | 0.9 | 0.00 | 0.00 | 0.00 | 46 | 1015.7 |
| 20260901162035 | 87 | 107 | 0.0 | 0.9 | 0.00 | 0.00 | 0.00 | 45 | 1015.6 |
| 20260901161034 | 88 | 52 | 0.0 | 0.9 | 0.00 | 0.00 | 0.00 | 44 | 1015.5 |
| 20260901160522 | 88 | 43 | 0.0 | 1.7 | 0.00 | 0.00 | 0.00 | 44 | 1015.5 |
| 20260901160013 | 88 | 349 | 0.0 | 5.2 | 0.00 | 0.00 | 0.00 | 44 | 1015.7 |
| 20260901155455 | 88 | 317 | 0.0 | 5.2 | 0.00 | 0.00 | 0.00 | 44 | 1015.7 |
| 20260901154948 | 88 | 315 | 1.7 | 5.2 | 0.00 | 0.00 | 0.00 | 44 | 1015.6 |
| 20260901153932 | 87 | 310 | 1.7 | 3.5 | 0.00 | 0.00 | 0.00 | 44 | 1015.8 |
| 20260901153435 | 87 | 327 | 1.7 | 6.1 | 0.00 | 0.00 | 0.00 | 44 | 1015.5 |
| 20260901152936 | 88 | 324 | 0.9 | 8.7 | 0.00 | 0.00 | 0.00 | 44 | 1015.6 |
| 20260901152433 | 88 | 323 | 2.6 | 8.7 | 0.00 | 0.00 | 0.00 | 43 | 1015.4 |
| 20260901151933 | 89 | 297 | 0.0 | 7.8 | 0.00 | 0.00 | 0.00 | 43 | 1015.6 |
| 20260901151433 | 89 | 318 | 0.0 | 5.2 | 0.00 | 0.00 | 0.00 | 44 | 1015.6 |
| 20260901150932 | 89 | 327 | 4.3 | 7.0 | 0.00 | 0.00 | 0.00 | 43 | 1015.4 |
| 20260901150431 | 89 | 322 | 0.9 | 7.0 | 0.00 | 0.00 | 0.00 | 43 | 1015.3 |
| 20260901145934 | 89 | 295 | 1.7 | 6.1 | 0.00 | 0.00 | 0.00 | 43 | 1015.4 |
| 20260901145430 | 89 | 316 | 2.6 | 7.0 | 0.00 | 0.00 | 0.00 | 42 | 1015.6 |
| 20260901143931 | 89 | 317 | 2.6 | 7.0 | 0.00 | 0.00 | 0.00 | 42 | 1015.7 |
| 20260901143433 | 90 | 82 | 0.0 | 5.2 | 0.00 | 0.00 | 0.00 | 41 | 1015.5 |
| 20260901142940 | 90 | 156 | 0.9 | 7.0 | 0.00 | 0.00 | 0.00 | 40 | 1015.6 |
| 20260901142433 | 90 | 320 | 1.7 | 7.8 | 0.00 | 0.00 | 0.00 | 40 | 1015.5 |
| 20260901141934 | 90 | 330 | 3.5 | 7.8 | 0.00 | 0.00 | 0.00 | 39 | 1015.6 |
| 20260901141436 | 90 | 303 | 0.9 | 8.7 | 0.00 | 0.00 | 0.00 | 40 | 1015.5 |
| 20260901140940 | 90 | 328 | 2.6 | 8.7 | 0.00 | 0.00 | 0.00 | 40 | 1015.5 |
| 20260901140434 | 90 | 80 | 0.0 | 6.1 | 0.00 | 0.00 | 0.00 | 40 | 1015.3 |
| 20260901135434 | 91 | 302 | 0.0 | 7.8 | 0.00 | 0.00 | 0.00 | 40 | 1015.6 |
| 20260901134426 | 92 | 112 | 0.9 | 1.7 | 0.00 | 0.00 | 0.00 | 37 | 1015.7 |
| 20260901133920 | 92 | 152 | 0.0 | 0.9 | 0.00 | 0.00 | 0.00 | 36 | 1015.7 |
| 20260901133407 | 91 | 54 | 0.0 | 6.1 | 0.00 | 0.00 | 0.00 | 38 | 1015.7 |
| 20260901132910 | 91 | 312 | 0.0 | 7.0 | 0.00 | 0.00 | 0.00 | 38 | 1015.7 |
| 20260901132407 | 91 | 316 | 1.7 | 7.0 | 0.00 | 0.00 | 0.00 | 38 | 1015.8 |
| 20260901131855 | 91 | 306 | 0.9 | 6.1 | 0.00 | 0.00 | 0.00 | 39 | 1015.8 |
| 20260901131358 | 91 | 322 | 2.6 | 6.1 | 0.00 | 0.00 | 0.00 | 37 | 1015.6 |
| 20260901130855 | 91 | 313 | 2.6 | 8.7 | 0.00 | 0.00 | 0.00 | 37 | 1015.7 |
| 20260901130342 | 90 | 311 | 1.7 | 8.7 | 0.00 | 0.00 | 0.00 | 38 | 1015.6 |
| 20260901124834 | 93 | 306 | 0.0 | 6.1 | 0.00 | 0.00 | 0.00 | 36 | 1015.8 |
| 20260901124334 | 94 | 322 | 0.0 | 6.1 | 0.00 | 0.00 | 0.00 | 37 | 1016.1 |
| 20260901123912 | 93 | 220 | 0.0 | 0.9 | 0.00 | 0.00 | 0.00 | 35 | 1015.9 |
| 20260901123333 | 92 | 146 | 0.0 | 3.5 | 0.00 | 0.00 | 0.00 | 35 | 1016.1 |
| 20260901122831 | 91 | 356 | 0.0 | 3.5 | 0.00 | 0.00 | 0.00 | 38 | 1016.1 |
| 20260901122338 | 91 | 310 | 1.7 | 3.5 | 0.00 | 0.00 | 0.00 | 38 | 1016.1 |
| 20260901121834 | 91 | 304 | 0.9 | 7.8 | 0.00 | 0.00 | 0.00 | 39 | 1016.1 |
| 20260901121334 | 90 | 322 | 0.0 | 7.8 | 0.00 | 0.00 | 0.00 | 39 | 1016.2 |
| 20260901120834 | 90 | 303 | 0.9 | 7.0 | 0.00 | 0.00 | 0.00 | 40 | 1016.2 |
| 20260901115835 | 91 | 213 | 0.0 | 2.6 | 0.00 | 0.00 | 0.00 | 39 | 1016.2 |
| 20260901115334 | 91 | 11 | 0.0 | 6.1 | 0.00 | 0.00 | 0.00 | 39 | 1016.2 |
| 20260901114833 | 90 | 349 | 0.9 | 7.8 | 0.00 | 0.00 | 0.00 | 42 | 1016.4 |
| 20260901114333 | 90 | 313 | 3.5 | 7.8 | 0.00 | 0.00 | 0.00 | 41 | 1016.2 |
| 20260901113833 | 90 | 330 | 0.9 | 7.0 | 0.00 | 0.00 | 0.00 | 42 | 1016.3 |
| 20260901112832 | 90 | 332 | 1.7 | 7.0 | 0.00 | 0.00 | 0.00 | 44 | 1016.2 |
| 20260901111330 | 89 | 315 | 0.0 | 3.5 | 0.00 | 0.00 | 0.00 | 44 | 1016.4 |
| 20260901110832 | 89 | 328 | 0.0 | 6.1 | 0.00 | 0.00 | 0.00 | 42 | 1016.5 |
| 20260901110331 | 88 | 312 | 3.5 | 7.8 | 0.00 | 0.00 | 0.00 | 43 | 1016.4 |
| 20260901105832 | 90 | 333 | 2.6 | 7.8 | 0.00 | 0.00 | 0.00 | 44 | 1016.4 |
| 20260901105331 | 92 | 339 | 0.9 | 3.5 | 0.00 | 0.00 | 0.00 | 44 | 1016.5 |
| 20260901104835 | 92 | 117 | 0.0 | 1.7 | 0.00 | 0.00 | 0.00 | 43 | 1016.4 |
| 20260901104330 | 91 | 152 | 0.0 | 1.7 | 0.00 | 0.00 | 0.00 | 44 | 1016.6 |
| 20260901103836 | 91 | 305 | 0.0 | 1.7 | 0.00 | 0.00 | 0.00 | 47 | 1016.6 |
| 20260901103331 | 90 | 143 | 0.0 | 2.6 | 0.00 | 0.00 | 0.00 | 45 | 1016.7 |
| 20260901102833 | 91 | 169 | 0.0 | 2.6 | 0.00 | 0.00 | 0.00 | 45 | 1016.6 |
| 20260901102333 | 90 | 134 | 0.0 | 1.7 | 0.00 | 0.00 | 0.00 | 45 | 1016.7 |
| 20260901101840 | 89 | 37 | 0.0 | 3.5 | 0.00 | 0.00 | 0.00 | 49 | 1016.9 |
| 20260901101333 | 88 | 325 | 0.0 | 3.5 | 0.00 | 0.00 | 0.00 | 49 | 1016.6 |
| 20260901100833 | 89 | 313 | 2.6 | 3.5 | 0.00 | 0.00 | 0.00 | 48 | 1016.7 |
| 20260901100337 | 88 | 15 | 0.9 | 5.2 | 0.00 | 0.00 | 0.00 | 51 | 1016.7 |
| 20260901095834 | 88 | 309 | 1.7 | 5.2 | 0.00 | 0.00 | 0.00 | 50 | 1016.7 |
| 20260901095334 | 89 | 161 | 0.0 | 1.7 | 0.00 | 0.00 | 0.00 | 52 | 1017.0 |
| 20260901094832 | 88 | 323 | 0.0 | 2.6 | 0.00 | 0.00 | 0.00 | 54 | 1016.9 |
| 20260901094331 | 87 | 313 | 1.7 | 2.6 | 0.00 | 0.00 | 0.00 | 53 | 1016.9 |
| 20260901093830 | 87 | 304 | 1.7 | 2.6 | 0.00 | 0.00 | 0.00 | 52 | 1017.0 |
| 20260901093335 | 87 | 86 | 0.9 | 1.7 | 0.00 | 0.00 | 0.00 | 55 | 1017.0 |
| 20260901092832 | 87 | 298 | 0.0 | 2.6 | 0.00 | 0.00 | 0.00 | 53 | 1017.1 |
| 20260901092331 | 85 | 187 | 0.0 | 2.6 | 0.00 | 0.00 | 0.00 | 56 | 1017.2 |
| 20260901091835 | 86 | 304 | 2.6 | 2.6 | 0.00 | 0.00 | 0.00 | 56 | 1017.1 |
| 20260901091336 | 86 | 358 | 0.9 | 1.7 | 0.00 | 0.00 | 0.00 | 57 | 1017.1 |
| 20260901090833 | 85 | 316 | 0.0 | 1.7 | 0.00 | 0.00 | 0.00 | 60 | 1017.1 |
| 20260901085834 | 85 | 320 | 0.0 | 1.7 | 0.00 | 0.00 | 0.00 | 58 | 1017.3 |
| 20260901084831 | 84 | 313 | 0.0 | 0.9 | 0.00 | 0.00 | 0.00 | 61 | 1017.2 |
| 20260901084413 | 83 | 300 | 0.0 | 0.9 | 0.00 | 0.00 | 0.00 | 63 | 1017.2 |
| 20260901083831 | 82 | 300 | 0.0 | 1.7 | 0.00 | 0.00 | 0.00 | 65 | 1017.4 |
| 20260901083319 | 82 | 282 | 0.9 | 1.7 | 0.00 | 0.00 | 0.00 | 62 | 1017.0 |
| 20260901082822 | 82 | 9 | 0.9 | 0.9 | 0.00 | 0.00 | 0.00 | 62 | 1017.2 |
| 20260901082319 | 82 | 9 | 0.0 | 0.0 | 0.00 | 0.00 | 0.00 | 65 | 1017.1 |
| 20260901081806 | 82 | 8 | 0.0 | 0.0 | 0.00 | 0.00 | 0.00 | 65 | 1017.1 |
| 20260901081306 | 82 | 8 | 0.0 | 0.0 | 0.00 | 0.00 | 0.00 | 65 | 1017.1 |
| 20260901080807 | 81 | 8 | 0.0 | 0.9 | 0.00 | 0.00 | 0.00 | 66 | 1017.1 |
| 20260901080257 | 81 | 1 | 0.0 | 0.9 | 0.00 | 0.00 | 0.00 | 66 | 1017.0 |
| 20260901075755 | 81 | 1 | 0.0 | 0.0 | 0.00 | 0.00 | 0.00 | 65 | 1017.1 |
| 20260901074246 | 79 | 7 | 0.0 | 0.9 | 0.00 | 0.00 | 0.00 | 65 | 1017.1 |
| 20260901072743 | 77 | 337 | 0.0 | 0.0 | 0.00 | 0.00 | 0.00 | 67 | 1016.9 |
| 20260901072246 | 76 | 337 | 0.0 | 0.0 | 0.00 | 0.00 | 0.00 | 72 | 1016.8 |
| 20260901071249 | 76 | 336 | 0.0 | 0.0 | 0.00 | 0.00 | 0.00 | 69 | 1017.2 |
| 20260901070742 | 74 | 336 | 0.0 | 0.9 | 0.00 | 0.00 | 0.00 | 72 | 1016.8 |
| 20260901070243 | 74 | 336 | 0.0 | 0.9 | 0.00 | 0.00 | 0.00 | 74 | 1016.9 |
| 20260901065743 | 73 | 324 | 0.0 | 0.0 | 0.00 | 0.00 | 0.00 | 74 | 1016.9 |
| 20260901065230 | 73 | 322 | 0.0 | 0.0 | 0.00 | 0.00 | 0.00 | 75 | 1016.7 |
| 20260901064737 | 73 | 313 | 0.0 | 0.0 | 0.00 | 0.00 | 0.00 | 75 | 1016.9 |
| 20260901064235 | 72 | 313 | 0.0 | 0.0 | 0.00 | 0.00 | 0.00 | 75 | 1016.9 |
| 20260901063734 | 72 | 320 | 0.0 | 0.0 | 0.00 | 0.00 | 0.00 | 76 | 1016.9 |
| 20260901063236 | 71 | 312 | 0.0 | 0.0 | 0.00 | 0.00 | 0.00 | 77 | 1016.8 |
| 20260901062735 | 70 | 312 | 0.0 | 0.0 | 0.00 | 0.00 | 0.00 | 79 | 1016.9 |
| 20260901062233 | 70 | 312 | 0.0 | 0.0 | 0.00 | 0.00 | 0.00 | 80 | 1017.0 |
| 20260901061730 | 69 | 318 | 0.0 | 0.0 | 0.00 | 0.00 | 0.00 | 80 | 1016.8 |
| 20260901061232 | 69 | 320 | 0.0 | 0.0 | 0.00 | 0.00 | 0.00 | 82 | 1016.9 |
| 20260901060230 | 69 | 314 | 0.0 | 0.0 | 0.00 | 0.00 | 0.00 | 83 | 1017.0 |
| 20260901055733 | 68 | 314 | 0.0 | 0.0 | 0.00 | 0.00 | 0.00 | 83 | 1017.1 |
| 20260901055230 | 67 | 315 | 0.0 | 0.0 | 0.00 | 0.00 | 0.00 | 87 | 1016.9 |
| 20260901054730 | 66 | 327 | 0.0 | 0.0 | 0.00 | 0.00 | 0.00 | 88 | 1016.7 |
| 20260901054233 | 66 | 327 | 0.0 | 0.0 | 0.00 | 0.00 | 0.00 | 91 | 1016.8 |
| 20260901053730 | 65 | 326 | 0.0 | 0.0 | 0.00 | 0.00 | 0.00 | 91 | 1017.0 |
| 20260901053230 | 65 | 326 | 0.0 | 0.0 | 0.00 | 0.00 | 0.00 | 91 | 1017.0 |
| 20260901052732 | 65 | 326 | 0.0 | 0.0 | 0.00 | 0.00 | 0.00 | 91 | 1016.8 |
| 20260901052235 | 64 | 326 | 0.0 | 0.0 | 0.00 | 0.00 | 0.00 | 91 | 1017.0 |
| 20260901051734 | 64 | 326 | 0.0 | 0.0 | 0.00 | 0.00 | 0.00 | 91 | 1016.8 |
| 20260901051236 | 64 | 326 | 0.0 | 0.0 | 0.00 | 0.00 | 0.00 | 91 | 1016.9 |
| 20260901050733 | 64 | 326 | 0.0 | 0.0 | 0.00 | 0.00 | 0.00 | 91 | 1016.8 |
| 20260901050240 | 64 | 326 | 0.0 | 0.0 | 0.00 | 0.00 | 0.00 | 91 | 1016.9 |
| 20260901045735 | 64 | 326 | 0.0 | 0.0 | 0.00 | 0.00 | 0.00 | 91 | 1016.8 |
| 20260901044734 | 64 | 326 | 0.0 | 0.0 | 0.00 | 0.00 | 0.00 | 91 | 1016.9 |
| 20260901043735 | 64 | 320 | 0.0 | 0.0 | 0.00 | 0.00 | 0.00 | 91 | 1016.7 |
| 20260901043234 | 64 | 320 | 0.0 | 0.0 | 0.00 | 0.00 | 0.00 | 90 | 1016.7 |
| 20260901042717 | 64 | 320 | 0.0 | 0.0 | 0.00 | 0.00 | 0.00 | 90 | 1016.4 |
| 20260901042217 | 64 | 320 | 0.0 | 0.0 | 0.00 | 0.00 | 0.00 | 90 | 1016.9 |
| 20260901041719 | 64 | 320 | 0.0 | 0.0 | 0.00 | 0.00 | 0.00 | 90 | 1016.7 |
| 20260901041217 | 64 | 320 | 0.0 | 0.0 | 0.00 | 0.00 | 0.00 | 90 | 1016.6 |
| 20260901040718 | 64 | 320 | 0.0 | 0.0 | 0.00 | 0.00 | 0.00 | 90 | 1016.5 |
| 20260901040219 | 64 | 320 | 0.0 | 0.0 | 0.00 | 0.00 | 0.00 | 90 | 1016.8 |
| 20260901035705 | 64 | 320 | 0.0 | 0.0 | 0.00 | 0.00 | 0.00 | 89 | 1016.5 |
| 20260901035207 | 64 | 320 | 0.0 | 0.0 | 0.00 | 0.00 | 0.00 | 89 | 1016.9 |
| 20260901034705 | 64 | 320 | 0.0 | 0.0 | 0.00 | 0.00 | 0.00 | 89 | 1016.6 |
| 20260901034147 | 64 | 320 | 0.0 | 0.0 | 0.00 | 0.00 | 0.00 | 89 | 1016.6 |
| 20260901033642 | 65 | 320 | 0.0 | 0.0 | 0.00 | 0.00 | 0.00 | 88 | 1016.6 |
| 20260901033131 | 65 | 320 | 0.0 | 0.0 | 0.00 | 0.00 | 0.00 | 89 | 1016.5 |
| 20260901032630 | 65 | 320 | 0.0 | 0.0 | 0.00 | 0.00 | 0.00 | 89 | 1016.4 |
| 20260901032132 | 65 | 320 | 0.0 | 0.0 | 0.00 | 0.00 | 0.00 | 89 | 1016.3 |
| 20260901031633 | 65 | 320 | 0.0 | 0.0 | 0.00 | 0.00 | 0.00 | 89 | 1016.4 |
| 20260901031136 | 65 | 320 | 0.0 | 0.0 | 0.00 | 0.00 | 0.00 | 89 | 1016.4 |
| 20260901030133 | 65 | 320 | 0.0 | 0.0 | 0.00 | 0.00 | 0.00 | 89 | 1016.6 |
| 20260901025640 | 65 | 320 | 0.0 | 0.0 | 0.00 | 0.00 | 0.00 | 89 | 1016.5 |
| 20260901025137 | 64 | 313 | 0.0 | 0.0 | 0.00 | 0.00 | 0.00 | 88 | 1016.6 |
| 20260901024633 | 65 | 313 | 0.0 | 0.0 | 0.00 | 0.00 | 0.00 | 88 | 1016.5 |
| 20260901024133 | 65 | 312 | 0.0 | 0.0 | 0.00 | 0.00 | 0.00 | 88 | 1016.6 |
| 20260901023632 | 65 | 312 | 0.0 | 1.7 | 0.00 | 0.00 | 0.00 | 88 | 1016.7 |
| 20260901023134 | 65 | 312 | 0.0 | 1.7 | 0.00 | 0.00 | 0.00 | 88 | 1016.4 |
| 20260901022635 | 65 | 312 | 0.0 | 0.0 | 0.00 | 0.00 | 0.00 | 88 | 1016.6 |
| 20260901022135 | 65 | 312 | 0.0 | 0.0 | 0.00 | 0.00 | 0.00 | 88 | 1016.5 |
| 20260901021635 | 65 | 312 | 0.0 | 0.0 | 0.00 | 0.00 | 0.00 | 87 | 1016.7 |
| 20260901021130 | 65 | 312 | 0.0 | 1.7 | 0.00 | 0.00 | 0.00 | 87 | 1016.4 |
| 20260901020631 | 65 | 312 | 0.0 | 2.6 | 0.00 | 0.00 | 0.00 | 87 | 1016.4 |
| 20260901020130 | 65 | 314 | 1.7 | 2.6 | 0.00 | 0.00 | 0.00 | 87 | 1016.6 |
| 20260901015136 | 65 | 304 | 0.0 | 0.0 | 0.00 | 0.00 | 0.00 | 86 | 1016.3 |
| 20260901014630 | 65 | 304 | 0.0 | 1.7 | 0.00 | 0.00 | 0.00 | 86 | 1016.4 |
| 20260901013136 | 65 | 304 | 0.0 | 0.0 | 0.00 | 0.00 | 0.00 | 86 | 1016.6 |
| 20260901012639 | 65 | 304 | 0.0 | 0.0 | 0.00 | 0.00 | 0.00 | 86 | 1016.4 |
| 20260901012135 | 65 | 304 | 0.0 | 0.0 | 0.00 | 0.00 | 0.00 | 86 | 1016.3 |
| 20260901011614 | 65 | 304 | 0.0 | 0.0 | 0.00 | 0.00 | 0.00 | 85 | 1016.3 |
| 20260901011104 | 65 | 304 | 0.0 | 0.0 | 0.00 | 0.00 | 0.00 | 85 | 1016.6 |
| 20260901010547 | 66 | 304 | 0.0 | 0.0 | 0.00 | 0.00 | 0.00 | 85 | 1016.5 |
| 20260901010041 | 66 | 304 | 0.0 | 0.0 | 0.00 | 0.00 | 0.00 | 85 | 1016.4 |
| 20260901005544 | 66 | 304 | 0.0 | 0.0 | 0.00 | 0.00 | 0.00 | 85 | 1016.4 |
| 20260901005041 | 66 | 304 | 0.0 | 0.0 | 0.00 | 0.00 | 0.00 | 85 | 1016.3 |
| 20260901004541 | 66 | 304 | 0.0 | 0.0 | 0.00 | 0.00 | 0.00 | 84 | 1016.5 |
| 20260901004045 | 66 | 304 | 0.0 | 0.0 | 0.00 | 0.00 | 0.00 | 84 | 1016.4 |
| 20260901003544 | 66 | 304 | 0.0 | 0.0 | 0.00 | 0.00 | 0.00 | 84 | 1016.2 |
| 20260901003044 | 66 | 304 | 0.0 | 0.0 | 0.00 | 0.00 | 0.00 | 84 | 1016.5 |
| 20260901002530 | 66 | 304 | 0.0 | 0.0 | 0.00 | 0.00 | 0.00 | 84 | 1016.4 |
| 20260901002011 | 66 | 304 | 0.0 | 0.0 | 0.00 | 0.00 | 0.00 | 84 | 1016.5 |
| 20260901001505 | 66 | 304 | 0.0 | 0.0 | 0.00 | 0.00 | 0.00 | 84 | 1016.4 |
| 20260901000443 | 65 | 305 | 0.0 | 0.9 | 0.00 | 0.00 | 0.00 | 83 | 1016.5 |
| 20260831235942 | 66 | 304 | 0.0 | 0.9 | 0.00 | 0.00 | 0.00 | 82 | 1016.8 |
| 20260831235441 | 66 | 312 | 0.0 | 0.9 | 0.00 | 0.00 | 0.00 | 81 | 1016.6 |
| 20260831234445 | 66 | 312 | 0.0 | 0.9 | 0.00 | 0.00 | 0.00 | 81 | 1016.8 |
| 20260831233943 | 66 | 312 | 0.0 | 0.0 | 0.00 | 0.00 | 0.00 | 80 | 1016.5 |
| 20260831233445 | 66 | 312 | 0.0 | 0.0 | 0.00 | 0.00 | 0.00 | 80 | 1016.6 |
| 20260831232945 | 67 | 312 | 0.0 | 0.0 | 0.00 | 0.00 | 0.00 | 80 | 1016.6 |
| 20260831232442 | 67 | 312 | 0.0 | 0.0 | 0.00 | 0.00 | 0.00 | 80 | 1016.5 |
| 20260831231946 | 67 | 313 | 0.0 | 0.0 | 0.00 | 0.00 | 0.00 | 79 | 1016.3 |
| 20260831231443 | 68 | 312 | 0.0 | 0.0 | 0.00 | 0.00 | 0.00 | 78 | 1016.4 |
| 20260831230947 | 68 | 312 | 0.0 | 0.0 | 0.00 | 0.00 | 0.00 | 77 | 1016.4 |
| 20260831225945 | 69 | 312 | 0.0 | 0.9 | 0.00 | 0.00 | 0.00 | 76 | 1016.3 |
| 20260831224445 | 69 | 312 | 0.0 | 1.7 | 0.00 | 0.00 | 0.00 | 76 | 1016.4 |
| 20260831223944 | 69 | 312 | 0.9 | 2.6 | 0.00 | 0.00 | 0.00 | 75 | 1016.0 |
| 20260831223445 | 69 | 315 | 1.7 | 2.6 | 0.00 | 0.00 | 0.00 | 76 | 1016.1 |
| 20260831222945 | 70 | 323 | 0.0 | 0.0 | 0.00 | 0.00 | 0.00 | 76 | 1016.1 |
| 20260831220944 | 71 | 324 | 0.0 | 0.9 | 0.00 | 0.00 | 0.00 | 73 | 1016.1 |
| 20260831220443 | 71 | 324 | 0.0 | 0.9 | 0.00 | 0.00 | 0.00 | 72 | 1016.2 |
| 20260831215945 | 71 | 316 | 0.0 | 0.9 | 0.00 | 0.00 | 0.00 | 73 | 1016.0 |
| 20260831215442 | 71 | 316 | 0.0 | 0.9 | 0.00 | 0.00 | 0.00 | 72 | 1016.2 |
| 20260831214945 | 72 | 316 | 0.0 | 0.9 | 0.00 | 0.00 | 0.00 | 72 | 1015.9 |
| 20260831214445 | 73 | 318 | 0.9 | 0.9 | 0.00 | 0.00 | 0.00 | 71 | 1016.0 |
| 20260831213940 | 73 | 312 | 0.0 | 0.9 | 0.00 | 0.00 | 0.00 | 71 | 1015.8 |
| 20260831213443 | 74 | 312 | 0.0 | 1.7 | 0.00 | 0.00 | 0.00 | 71 | 1016.0 |
| 20260831212447 | 75 | 315 | 1.7 | 2.6 | 0.00 | 0.00 | 0.00 | 73 | 1015.8 |
| 20260831211944 | 75 | 313 | 1.7 | 1.7 | 0.00 | 0.00 | 0.00 | 73 | 1015.6 |
| 20260831211445 | 75 | 318 | 0.0 | 3.5 | 0.00 | 0.00 | 0.00 | 72 | 1015.9 |
| 20260831205943 | 74 | 310 | 0.9 | 1.7 | 0.00 | 0.00 | 0.00 | 71 | 1016.3 |
| 20260831205444 | 74 | 309 | 0.0 | 2.6 | 0.00 | 0.00 | 0.00 | 69 | 1015.9 |
| 20260831204946 | 75 | 309 | 0.0 | 2.6 | 0.00 | 0.00 | 0.00 | 68 | 1015.8 |
| 20260831204445 | 75 | 312 | 0.0 | 2.6 | 0.00 | 0.00 | 0.00 | 69 | 1015.6 |
| 20260831203945 | 75 | 314 | 0.9 | 2.6 | 0.00 | 0.00 | 0.00 | 69 | 1015.9 |